This demonstration page uses our WeatherBlox Daily Observations layout. Learn more.

Left ArrowRight Arrow

Hourly Observations for May 1, 2019

Temp ( °F °C ) Dew Point ( °F °C ) Humidity (%) Winds ( mph kmh ) Pressure ( in mb ) Visibility ( mi km ) Precip ( " mm )
12:50 am 00:50 Cloudy with Heavy Rain 46 8 45 7 93 93 N 15 24 29.95 1014 3 5 0.05 1.27
12:52 am 00:52 Cloudy with Rain 47 8.3 44 6.7 90 90 N 14 22 29.93 1014 3 5 0.05 1.27
1:52 am 01:52 Cloudy 47 8.3 43 6.1 86 86 N 14 22 29.91 1013 10 16 0.02 0.51
2:05 am 02:05 Cloudy 47 8.3 43 6.1 86 86 N 14 22 29.92 1013 10 16 0.00 0.00
2:52 am 02:52 Cloudy 47 8.3 43 6.1 86 86 N 14 22 29.90 1013 10 16 0.00 0.00
3:52 am 03:52 Cloudy 47 8.3 42 5.6 83 83 NNE 9 15 29.90 1012 10 16 0.00 0.00
4:52 am 04:52 Cloudy 47 8.3 42 5.6 83 83 N 9 15 29.93 1013 10 16 0.00 0.00
5:37 am 05:37 Cloudy 46 7.8 42 5.6 86 86 N 15 24 29.94 1014 10 16 0.00 0.00
5:52 am 05:52 Cloudy 46 7.8 41 5 83 83 N 14 22 29.93 1014 10 16 0.00 0.00
6:52 am 06:52 Cloudy 46 7.8 41 5 83 83 N 15 24 29.94 1014 10 16 0.00 0.00
7:43 am 07:43 Cloudy 46 7.8 41 5 83 83 NNE 10 17 29.99 1016 10 16 0.00 0.00
7:52 am 07:52 Cloudy 46 7.8 40 4.4 79 79 NNE 13 20 29.97 1015 10 16 0.00 0.00
8:52 am 08:52 Cloudy 47 8.3 41 5 80 80 NE 9 15 30.00 1016 7 11 0.00 0.00
9:52 am 09:52 Cloudy 47 8.3 40 4.4 77 77 N 8 13 30.01 1016 10 16 0.00 0.00
10:52 am 10:52 Cloudy 48 8.9 41 5 77 77 NNE 7 11 30.02 1017 10 16 0.00 0.00
11:14 am 11:14 Cloudy 49 9.4 41 5 74 74 N 10 17 30.02 1017 10 16 0.00 0.00
11:52 am 11:52 Cloudy 50 10 41 5 71 71 NNE 8 13 30.01 1016 10 16 0.00 0.00
12:52 pm 12:52 Cloudy 50 10 42 5.6 74 74 NNW 9 15 30.03 1017 10 16 0.00 0.00
1:52 pm 13:52 Cloudy 51 10.6 42 5.6 71 71 N 8 13 30.03 1017 10 16 0.00 0.00
2:52 pm 14:52 Cloudy 54 12.2 43 6.1 67 67 N 9 15 30.01 1016 10 16 0.00 0.00
3:52 pm 15:52 Cloudy 54 12.2 43 6.1 67 67 N 7 11 30.01 1016 10 16 0.00 0.00
4:52 pm 16:52 Cloudy 53 11.7 43 6.1 69 69 N 8 13 30.04 1017 10 16 0.00 0.00
5:52 pm 17:52 Cloudy 53 11.7 42 5.6 66 66 N 9 15 30.04 1017 10 16 0.00 0.00
6:52 pm 18:52 Cloudy 51 10.6 42 5.6 71 71 N 12 19 30.06 1018 10 16 0.00 0.00
7:52 pm 19:52 Cloudy 51 10.6 42 5.6 71 71 N 14 22 30.07 1018 10 16 0.00 0.00
8:52 pm 20:52 Cloudy 51 10.6 42 5.6 71 71 NNW 8 13 30.11 1020 10 16 0.00 0.00
9:52 pm 21:52 Cloudy 50 10 42 5.6 74 74 N 7 11 30.11 1020 10 16 0.00 0.00
10:52 pm 22:52 Cloudy 49 9.4 41 5 74 74 NNW 9 15 30.10 1019 10 16 0.00 0.00
11:03 pm 23:03 Mostly Cloudy 50 10 42 5.6 74 74 NNW 13 20 30.10 1019 10 16 0.00 0.00
11:52 pm 23:52 Cloudy 49 9.4 42 5.6 77 77 NW 8 13 30.13 1020 10 16 0.00 0.00

Powered by AerisWeather